Location: Skalnate Pleso
(49.1889°N, 20.2450°E)
Time: 03:17:29
(UTC+02:00)

COSMOS 2428 - Pass Details

Date: 22 February 2020
Orbit: 846 x 856 km, 70.9° (Epoch: 28 March)

Event Time Altitude Azimuth Distance (km) Brightness Sun altitude
Exits shadow 02:46:46 20° 4° (N) 1,896 4.8 -37.1°
Drops below altitude 10° 02:48:43 10° 17° (NNE) 2,501 5.6 -36.8°
Sets 02:51:25 0° 26° (NNE) 3,441 6.6 -36.4°
